Погода в Звонарёве Куте

Россия / Омская область     54°41′23″N   73°22′14″E
темп.,
°C
ветер,
м/с
пор.,
м/с
влажн.,
%
обл.,
%
осадки,
мм/ч
давл.,
гПа
погр.,
м
9 марта, вт
вт900:00−13юз5138893 0.0 1018299
03:00−14юз6148636 0.0 1018365
06:00−14юз6148841 0.0 1018347
09:00−13ююз6139085 0.0 1018358
12:00−10ююз7129092 0.0 1017517
15:00−6ююз81487100 0.0 1016671
18:00−7ююз7148393 0.0 1015605
21:00−8ююз7158386 0.0 1015459
10 марта, ср
ср1000:00−9юз6128794 0.0 1015388
03:00−10юз5991100 0.0 1015257
06:00−11юз3394100 0.0 101462
09:00−10ююв2395100 0.0 101284
12:00−8вюв4695100 1.1 1009299
15:00−7в6993100 1.6 1004450
18:00−8всв4795100 2.8 1000435
21:00−10зсз349695 0.3 100162
11 марта, чт
чт1100:00−12зюз4109683 0.3 1003149
03:00−12юз5109652 0.0 1003202
06:00−8юз8149072 0.1 1005585
09:00−12юз7158999 0.0 1007515
12:00−11юз7128586 0.0 1008630
15:00−9юз7118021 0.0 1009900
18:00−8ююз599459 0.1 1007516
21:00−11юз41193100 0.3 1007395
12 марта, пт
пт1200:00−16юз5129094 0.3 1008538
03:00−16юз7149286 0.1 1009679
06:00−17зюз8149193 0.1 1010600
09:00−20з71391100 0.0 1013641
12:00−18з81287100 0.1 1016778
15:00−17з81182100 0.0 10181005
18:00−18з5118696 0.0 1020383
21:00−22зюз44940 0.0 102345
13 марта, сб
сб1300:00−23зюз459713 0.0 102564
03:00−22юз47980 0.0 1025118
06:00−22юз49970 0.0 1026137
09:00−21юз510960 0.0 1027201
12:00−17юз599320 0.0 1027277
15:00−14юз589155 0.0 1027340
18:00−14юз489251 0.0 1027263
21:00−18юз47960 0.0 1027108